Location: Crescent
(42.8242°N, 73.7329°W)
Time: 21:35:24
(UTC+00:00)

SR - Pass Details

Date: 17 February 2026
Orbit: 573 x 848 km, 66.7° (Epoch: 6 March)

Event Time Altitude Azimuth Distance (km) Brightness Sun altitude
Rises 18:58:54 0° 322° (NW) 3,104 ? 29.9°
Reaches altitude 10° 19:01:16 10° 315° (NW) 2,226 ? 29.6°
Maximum altitude 19:06:03 41° 246° (WSW) 1,095 ? 29.2°
Drops below altitude 10° 19:11:09 10° 177° (S) 2,372 ? 28.7°
Sets 19:13:45 0° 171° (S) 3,331 ? 28.4°
